East Haven, CT

3:58 AM EST on December 07, 2016 (GMT -0500)
Tweed-New Haven

Weather History for KHVN - July, 2013

Change the Weather History Date:

Tuesday, July 30, 2013

  Actual Average Record
Temperature  
Mean Temperature 74 °F -  
Max Temperature 81 °F 78 °F 104 °F (1988)
Min Temperature 66 °F 63 °F 57 °F (1997)
Cooling Degree Days 8    
Growing Degree Days 24 (Base 50)    
Moisture  
Dew Point 57 °F    
Average Humidity 58    
Maximum Humidity 81    
Minimum Humidity 42    
Precipitation  
Precipitation 0.00 in - - ()
Sea Level Pressure  
Sea Level Pressure 30.11 in    
Wind  
Wind Speed 6 mph (NW)    
Max Wind Speed 9 mph    
Max Gust Speed -    
Visibility 10 miles    
Events      
Averages and records for this station are not official NWS values.
T = Trace of Precipitation, MM = Missing Value Source: NWS Daily Summary

Daily Weather History Graph

Daily Weather History Graph

Search for Another Location

Airport or City:

Trip Planner

Search our weather history database for the weather conditions in past years. The results will help you decide how hot, cold, wet, or windy it might be!

Date:

Astronomy

Jul. 30, 2013 Rise Set
Actual Time 5:45 AM EDT 8:10 PM EDT
Civil Twilight 5:13 AM EDT 8:41 PM EDT
Nautical Twilight 4:35 AM EDT 9:19 PM EDT
Astronomical Twilight 3:51 AM EDT 10:02 PM EDT
Moon 12:01 AM EDT (7/30) 2:27 PM EDT (7/30)
Length of Visible Light 15h 27m
Length of Day
14h 25m
Last Quarter, 41% of the Moon is Illuminated
Jul 30
Last Quarter
Aug 6
New
Aug 14
First Quarter
Aug 20
Full
Aug 28
Last Quarter

Hourly Weather History & Observations

Time (EDT) Temp. Heat Index Dew Point Humidity Pressure Visibility Wind Dir Wind Speed Gust Speed Precip Events Conditions
12:53 AM 70.0 °F - 55.0 °F 59% 30.08 in 10.0 mi NNW 5.8 mph - N/A   Clear
1:53 AM 69.1 °F - 55.0 °F 61% 30.09 in 10.0 mi NNW 6.9 mph - N/A   Clear
2:53 AM 68.0 °F - 55.0 °F 63% 30.08 in 10.0 mi NNW 6.9 mph - N/A   Clear
3:53 AM 66.9 °F - 55.0 °F 66% 30.09 in 10.0 mi North 6.9 mph - N/A   Scattered Clouds
4:53 AM 66.9 °F - 54.0 °F 63% 30.10 in 10.0 mi NW 5.8 mph - N/A   Clear
5:53 AM 66.0 °F - 55.9 °F 70% 30.12 in 10.0 mi WNW 5.8 mph - N/A   Partly Cloudy
6:53 AM 66.0 °F - 55.9 °F 70% 30.13 in 10.0 mi WNW 5.8 mph - N/A   Clear
7:53 AM 69.1 °F - 55.9 °F 63% 30.14 in 10.0 mi WNW 5.8 mph - N/A   Clear
8:53 AM 71.1 °F - 55.9 °F 59% 30.14 in 10.0 mi Variable 5.8 mph - N/A   Clear
9:53 AM 73.0 °F - 57.0 °F 57% 30.15 in 10.0 mi West 4.6 mph - N/A   Clear
10:53 AM 75.0 °F - 55.9 °F 51% 30.14 in 10.0 mi Variable 6.9 mph - N/A   Clear
11:53 AM 77.0 °F - 55.9 °F 48% 30.13 in 10.0 mi WNW 6.9 mph - N/A   Scattered Clouds
12:53 PM 77.0 °F - 62.1 °F 60% 30.13 in 10.0 mi Variable 4.6 mph - N/A   Scattered Clouds
1:53 PM 80.1 °F 80.1 °F 55.0 °F 42% 30.11 in 10.0 mi Variable 4.6 mph - N/A   Scattered Clouds
2:53 PM 80.1 °F 80.2 °F 55.9 °F 43% 30.10 in 10.0 mi NW 6.9 mph - N/A   Scattered Clouds
3:53 PM 80.1 °F 80.1 °F 55.0 °F 42% 30.09 in 10.0 mi WNW 6.9 mph - N/A   Scattered Clouds
4:53 PM 80.1 °F 80.1 °F 55.0 °F 42% 30.09 in 10.0 mi West 9.2 mph - N/A   Scattered Clouds
5:53 PM 81.0 °F 81.0 °F 57.0 °F 44% 30.08 in 10.0 mi WNW 4.6 mph - N/A   Scattered Clouds
6:53 PM 79.0 °F - 55.9 °F 45% 30.10 in 10.0 mi WNW 5.8 mph - N/A   Partly Cloudy
7:53 PM 75.9 °F - 57.0 °F 52% 30.12 in 10.0 mi NW 3.5 mph - N/A   Partly Cloudy
8:53 PM 75.0 °F - 57.9 °F 55% 30.12 in 10.0 mi Calm Calm - N/A   Partly Cloudy
9:53 PM 71.1 °F - 59.0 °F 66% 30.13 in 10.0 mi Calm Calm - N/A   Clear
10:53 PM 66.9 °F - 61.0 °F 81% 30.12 in 10.0 mi Calm Calm - N/A   Clear
11:53 PM 66.9 °F - 61.0 °F 81% 30.12 in 10.0 mi Calm Calm - N/A   Clear